Regional Weather Roundup
Issued by NWS Sioux Falls, SD

Home | Current Version | Previous Version | Graphics & Text | Print | Product List | Glossary Off
Versions: 1 2 3 4 5 6 7 8 9 10 11 12 13 14 15 16 17 18 19 20 21 22 23 24 25 26 27 28 29 30 31 32 33 34 35 36 37 38 39 40 41 42 43 44 45 46 47 48 49 50

000
ASUS43 KFSD 250402
RWRFSD

WEATHER ROUNDUP FOR SE SOUTH DAKOTA/SW MINNESOTA/NW IOWA
NATIONAL WEATHER SERVICE SIOUX FALLS SD
1100 PM CDT SAT SEP 24 2016

NOTE: "FAIR" INDICATES FEW OR NO CLOUDS BELOW 12,000 FEET WITH NO
SIGNIFICANT WEATHER AND OR OBSTRUCTIONS TO VISIBILITY.


SDZ038>040-050-052>070-250500-
SOUTHEAST SOUTH DAKOTA

CITY           SKY/WX    TMP DP  RH WIND       PRES   REMARKS
CHAMBERLAIN    CLEAR     61  44  54 W14G20    29.96S
HURON          CLEAR     61  48  62 W8        29.88R
MADISON        MOCLDY    64  64 100 SW7       29.92S
MITCHELL       PTCLDY    65  52  62 W12       29.91R
SIOUX FALLS    CLOUDY    71  68  90 SW8       29.91S
WINNER         FAIR      59  42  53 W14       29.99R
YANKTON        PTCLDY    66  66 100 S6        29.91S
$$

MNZ071-072-080-081-089-090-097-098-250500-
SOUTHWEST MINNESOTA

CITY           SKY/WX    TMP DP  RH WIND       PRES   REMARKS
FAIRMONT       LGT RAIN  68  65  90 S15       29.96S
JACKSON        MOCLDY    68  64  88 S13       29.97R
LUVERNE        RAIN      68  64  88 S7        29.92F
MARSHALL       MOCLDY    66  66 100 SE7       29.90S
MONTEVIDEO     CLOUDY    68  68 100 S8        29.90F
PIPESTONE      CLOUDY    70  68  94 S7        29.92S FOG
REDWOOD FALLS  CLOUDY    69  66  90 SE9       29.90F
TRACY          PTCLDY    69  68  97 S8        29.91F
WINDOM         CLOUDY    70  66  88 S9        29.94S
WORTHINGTON    CLOUDY    67  64  90 S12G17    29.94F
$$

IAZ001>003-012>014-020>022-031-032-NEZ013-014-SDZ071-250500-
NORTHWEST IOWA

CITY           SKY/WX    TMP DP  RH WIND       PRES   REMARKS
CHEROKEE       CLOUDY    68  68 100 S6        29.96F
DENISON        CLOUDY    70  68  94 SE9       29.97R
ESTHERVILLE    MOCLDY    66  66 100 S17       29.97R
LE MARS        CLOUDY    70  68  94 SE10      29.94S
ORANGE CITY    CLOUDY    70  68  94 S7        29.94F
SHELDON        CLOUDY    68  68 100 S12       29.92F
SIOUX CITY     CLOUDY    72  71  97 SE12      29.93S
SPENCER        CLOUDY    68  67  96 S13       29.97R
STORM LAKE     CLOUDY    66  66 100 S9        29.98F
$$

ABBREVIATIONS USED IN REMARKS
   TC - TEMPERATURE IN CELSIUS
  WCI - WIND CHILL INDEX
   HX - HEAT INDEX
  VSB - VISIBILITY





USA.gov is the U.S. government's official web portal to all federal, state and local government web resources and services.